Lapse_Rate
2.3 4.5 6.5 8.3 6.5 6.5 6.5 6.5 6.5 6.5 6.5 7.0 7.4 6.8 6.6 6.8 6.5 6.5 8.3 8.0 8.0 5.4 4.5 4.2 3.4 3.2 3.3 3.3 3.3 3.5 3.9 4.1 4.1 4.2 4.3 4.2 4.2 4.0 3.3 2.7 2.7 3.1 3.3 3.1 2.9 2.8 2.6 2.3 2.1
7.1 8.6 9.1 7.6 6.5 6.5 6.5 6.5 6.5 6.5 6.8 7.4 7.3 7.1 6.7 6.5 7.7 7.7 7.4 7.7 9.1 7.4 5.2 4.9 3.5 3.3 3.2 3.3 3.7 4.2 4.7 4.8 4.6 4.7 4.7 4.5 4.2 3.6 2.9 2.7 2.9 3.2 3.2 3.1 3.0 2.7 2.4 2.1 2.1
5.6 8.2 7.5 6.5 6.5 6.5 6.5 6.5 6.5 6.6 7.2 7.1 6.8 7.5 7.1 6.8 7.8 8.2 7.0 8.1 8.5 8.2 7.0 5.1 3.7 3.5 3.2 3.5 4.1 4.8 5.0 5.0 4.9 4.9 4.8 4.7 4.1 3.4 2.9 3.1 3.5 3.6 3.4 3.2 2.9 2.5 2.1 1.8 1.8
7.8 8.3 7.8 6.5 6.5 6.5 6.5 6.5 6.5 6.5 7.0 7.4 7.3 6.5 7.7 8.3 8.2 8.1 7.4 9.4 8.5 8.6 8.8 3.7 3.7 3.7 3.5 3.7 3.9 4.0 4.5 4.7 4.7 4.9 4.7 4.6 3.8 3.3 3.4 3.7 3.9 3.5 3.4 3.0 2.6 2.1 1.8 1.6 1.5
8.9 7.8 6.5 6.5 6.5 6.5 6.5 6.6 6.8 6.5 6.6 6.9 7.2 6.6 6.9 8.1 8.8 7.5 7.4 9.2 8.3 8.8 7.8 5.4 4.0 3.9 3.8 4.2 4.4 4.3 4.7 4.9 5.0 5.0 4.6 3.8 3.5 3.7 3.8 4.0 3.5 3.3 2.9 2.6 2.1 1.7 1.6 1.6 1.5
7.3 7.3 6.5 6.5 6.5 6.5 6.5 7.0 6.8 6.5 6.8 7.0 6.8 6.8 7.1 8.1 8.5 9.0 8.9 8.8 8.4 7.3 6.7 6.1 4.6 4.3 4.3 4.4 4.4 4.3 5.0 5.3 4.7 4.1 4.4 4.1 3.7 3.9 4.0 3.6 3.0 2.8 2.5 2.0 1.8 1.5 1.5 1.6 1.5
6.7 6.5 6.5 6.5 6.5 6.5 6.5 7.2 6.5 6.5 6.6 6.7 7.5 6.5 7.3 8.2 8.4 9.1 9.1 7.8 6.8 6.7 6.9 6.0 5.9 5.6 5.1 4.4 3.6 4.3 4.6 4.7 4.2 4.4 4.1 3.4 4.0 4.2 3.7 3.2 3.0 2.5 2.1 1.8 1.7 1.5 1.3 1.3 1.4
7.6 6.5 6.5 6.5 6.5 6.5 6.6 6.9 7.2 6.9 6.7 7.9 7.9 6.5 6.6 7.8 7.3 7.9 9.0 8.1 5.9 6.7 6.6 6.0 6.2 6.0 5.2 4.2 4.1 4.9 4.7 4.6 4.1 3.6 3.3 3.4 3.8 3.8 3.2 2.7 2.7 2.4 2.0 1.9 1.7 1.5 1.4 1.4 1.6
8.2 6.5 6.5 6.5 6.5 6.5 6.9 6.5 7.3 7.8 7.2 7.4 7.7 7.6 8.0 8.5 7.5 7.8 8.4 7.5 6.1 6.6 6.3 6.0 5.8 6.0 5.4 5.0 4.7 4.8 4.8 4.7 4.7 4.1 3.1 3.6 4.1 3.5 2.8 3.1 2.2 2.1 2.0 1.9 1.7 1.3 1.4 1.6 2.6
6.7 6.5 6.5 6.5 6.5 6.5 6.6 6.6 6.9 6.8 6.8 6.9 7.3 8.0 8.0 8.2 7.5 8.1 8.2 7.5 6.6 6.4 6.0 6.1 5.6 5.5 4.8 4.6 4.5 4.8 4.9 4.9 5.1 4.3 3.3 4.4 4.0 3.7 3.5 1.7 1.9 1.8 1.7 1.8 1.7 1.6 1.9 3.6 5.1
6.8 6.5 6.5 6.6 7.0 7.1 6.6 6.6 7.3 6.6 6.5 6.9 6.8 7.4 7.4 8.1 7.9 8.0 8.3 8.5 7.5 7.1 6.2 5.6 5.2 4.4 4.5 4.4 4.6 4.7 4.5 4.9 5.6 5.1 4.1 5.3 4.8 4.8 1.8 1.2 1.4 1.2 1.5 1.5 1.5 2.0 3.1 4.6 7.3
6.5 6.7 6.8 6.9 7.3 7.1 6.5 7.2 6.6 6.9 6.8 7.7 7.8 7.9 7.8 7.7 8.0 8.2 8.3 8.4 8.3 7.3 6.4 5.6 5.2 4.6 4.2 3.9 4.9 4.7 5.3 5.9 6.1 5.6 4.6 6.2 6.2 5.1 3.0 2.4 1.9 1.8 2.0 2.2 3.4 3.8 6.1 7.0 7.3
6.5 6.5 6.9 7.2 7.3 7.2 7.3 6.5 6.7 6.7 7.5 8.1 8.0 7.8 7.6 7.7 8.1 8.3 8.6 8.7 8.3 8.1 7.6 5.4 5.0 5.1 4.6 4.5 5.0 4.8 6.0 6.6 7.0 5.7 5.4 7.9 7.0 5.5 4.4 4.2 3.8 3.8 3.9 3.8 5.9 5.0 5.2 5.1 5.9
6.9 6.7 6.7 7.1 6.9 7.1 6.6 6.5 6.8 6.9 7.7 7.6 7.7 7.5 7.7 7.6 7.8 8.0 8.1 8.2 7.6 7.6 7.7 6.6 4.9 5.4 5.3 4.7 4.5 5.0 6.5 7.1 7.9 6.7 6.1 7.9 7.3 5.5 5.3 5.1 5.2 4.9 6.4 6.9 5.6 4.7 3.9 3.9 4.9
7.0 6.5 6.5 6.5 6.6 6.5 7.0 6.5 6.5 7.1 7.6 7.3 7.4 7.5 7.6 7.7 8.0 7.7 7.7 7.7 7.9 6.2 7.0 6.7 5.5 5.4 5.5 5.3 4.7 5.4 7.0 8.2 8.0 7.7 6.6 6.7 7.2 6.0 5.9 5.4 5.1 5.7 6.9 7.0 6.3 5.8 5.6 3.8 5.5
6.5 6.5 6.5 6.5 6.5 6.6 6.7 6.5 6.5 7.4 7.2 7.0 7.2 7.3 7.4 7.6 7.8 8.0 7.6 7.6 8.5 7.4 5.1 6.3 5.7 5.7 5.9 6.2 5.7 6.3 7.2 8.1 7.9 7.6 6.8 6.5 7.2 6.6 5.4 5.0 5.1 5.9 6.1 5.8 4.6 4.7 5.2 4.5 4.2
6.5 6.5 6.5 6.5 6.5 6.5 6.5 6.5 6.5 7.3 7.0 6.7 6.9 7.1 7.3 7.4 7.7 7.8 7.9 8.0 8.2 7.7 4.6 4.3 5.7 5.5 5.7 6.4 6.4 6.5 7.2 8.0 7.7 7.7 6.9 6.3 6.8 6.7 5.7 5.0 4.6 5.4 4.0 3.3 4.3 4.9 4.8 4.7 4.8
6.5 6.5 6.5 6.5 6.5 6.5 6.5 6.5 6.5 6.8 6.8 6.5 6.8 6.9 7.0 7.1 7.5 7.7 7.5 7.9 7.8 7.9 4.3 2.4 4.8 5.7 5.4 6.2 6.6 6.6 7.0 8.0 7.5 7.5 7.0 5.9 6.2 6.3 5.6 5.2 3.5 4.3 3.8 3.8 4.3 4.9 5.1 5.3 5.8
6.5 6.5 6.5 6.5 6.5 6.5 6.5 6.5 6.5 6.5 6.5 6.5 6.6 6.8 6.8 7.0 7.4 7.4 6.9 6.7 6.3 6.7 4.2 2.9 2.5 5.8 5.5 6.2 6.0 6.0 6.3 7.7 7.7 7.7 6.9 5.7 5.3 5.4 5.1 5.4 3.5 3.4 4.0 3.3 3.6 4.7 5.1 5.5 5.6
6.5 6.5 6.5 6.5 6.5 6.5 6.5 6.5 6.5 6.5 6.5 6.5 6.6 6.7 6.7 6.8 7.2 7.0 6.6 6.1 5.5 5.5 3.6 2.5 1.9 3.1 5.7 6.1 6.5 6.2 6.5 6.9 7.9 7.6 7.0 5.9 4.9 4.8 5.0 4.6 2.9 3.2 3.7 2.8 3.7 4.6 4.9 4.9 5.6
6.5 6.5 6.5 6.5 6.5 6.5 6.5 6.5 6.5 6.5 6.5 6.7 6.8 6.8 7.1 6.9 6.8 7.1 7.0 6.3 5.7 5.7 3.9 2.2 2.3 1.9 5.4 6.1 6.9 7.0 7.5 7.4 7.9 7.5 7.1 5.7 4.9 4.2 4.5 3.9 2.6 2.9 3.0 2.4 2.9 3.5 3.8 3.8 4.8
6.5 6.5 6.5 6.5 6.5 6.5 6.5 6.5 6.5 6.5 6.5 6.5 6.5 6.5 6.6 6.9 7.1 7.3 6.8 6.8 5.6 6.1 2.2 1.7 1.4 2.4 4.7 6.2 6.5 6.8 7.2 7.3 7.9 7.5 7.5 6.0 5.6 4.2 4.3 3.9 2.9 2.7 2.5 2.3 3.1 3.8 3.0 3.5 4.2
6.5 6.5 6.5 6.5 6.5 6.5 6.5 6.5 6.5 6.5 6.5 6.5 6.5 6.4 6.2 6.4 6.7 6.9 6.9 6.7 7.0 6.4 3.0 2.8 1.9 2.8 3.6 5.9 6.3 6.6 7.5 7.7 7.9 7.7 7.0 6.5 6.0 4.8 4.7 4.3 3.0 2.4 2.2 2.1 2.6 3.1 3.3 3.7 3.8
6.5 6.5 6.5 6.5 6.5 6.5 6.5 6.5 6.5 6.5 6.5 6.5 6.5 6.5 6.5 6.6 6.4 6.4 6.3 6.4 6.9 6.5 5.4 4.3 3.5 3.0 4.1 5.7 6.1 6.8 7.1 7.8 7.7 7.4 6.7 6.5 5.9 5.3 5.2 4.4 3.7 3.1 3.1 2.2 2.3 2.8 2.8 2.6 3.2
6.5 6.5 6.5 6.5 6.5 6.5 6.5 6.5 6.5 6.5 6.5 6.5 6.5 6.5 6.6 6.7 5.6 6.1 6.7 6.7 6.6 6.0 6.5 4.0 4.4 3.6 4.2 5.0 6.2 6.6 6.9 7.6 7.1 7.5 7.1 6.6 6.0 5.5 5.1 5.0 4.4 3.9 2.3 1.7 1.6 2.1 2.8 2.6 2.2
6.5 6.5 6.5 6.5 6.5 6.5 6.5 6.5 6.5 6.5 6.5 6.5 6.7 6.5 7.0 6.9 6.9 7.1 6.9 6.7 6.4 5.9 6.6 5.3 4.2 5.7 4.9 5.2 5.7 7.1 7.6 7.5 7.4 7.2 7.0 6.4 5.3 5.0 5.0 5.1 4.4 3.3 2.9 2.6 2.0 1.8 2.1 2.6 3.3
6.5 6.5 6.5 6.5 6.5 6.5 6.5 6.5 6.5 6.5 6.5 6.5 6.5 6.4 6.4 6.7 6.8 6.5 7.2 7.2 6.8 5.9 5.8 6.5 7.0 7.8 6.4 4.8 5.9 6.7 6.9 7.6 7.1 6.4 6.5 5.9 5.0 4.9 5.1 4.8 4.3 3.6 3.1 1.9 1.2 1.8 2.3 3.3 3.2
6.5 6.5 6.5 6.5 6.5 6.5 6.5 6.5 6.5 6.5 6.5 6.5 6.5 6.5 6.3 6.8 6.9 6.8 6.8 7.0 6.5 4.5 4.9 5.8 6.0 6.4 6.1 5.7 6.0 6.3 5.8 6.7 5.5 5.4 5.3 5.6 5.5 5.2 4.2 4.5 4.4 3.9 2.8 2.0 1.7 1.7 1.8 3.1 3.6
6.5 6.5 6.5 6.5 6.5 6.5 6.5 6.5 6.5 6.5 6.5 6.5 6.5 6.5 6.3 6.6 6.2 6.9 7.0 7.0 6.2 5.1 5.2 4.3 5.2 5.2 4.7 5.1 5.6 5.5 4.1 4.6 4.0 4.5 4.2 4.5 4.5 4.9 4.3 4.9 5.3 5.0 3.8 3.2 2.0 2.5 3.2 2.8 2.5
6.5 6.5 6.5 6.5 6.5 6.5 6.5 6.5 6.5 6.5 6.5 6.5 6.5 6.9 5.9 6.7 6.7 7.2 7.3 7.3 6.7 6.8 6.8 5.4 5.7 5.0 4.2 4.2 4.3 3.8 3.2 2.9 3.0 2.9 2.9 2.9 3.2 3.3 4.6 3.8 4.5 4.2 3.6 3.6 4.1 2.6 3.0 2.6 2.7
Wind_Speed
9 11 8 8 7 8 16 22 21 24 3 5 11 7 12 13 9 4 10 4 17 17 19 21 21 20 16 18 19 21 21 22 21 21 21 21 21 19 21 21 21 18 15 14 13 12 11 10 10
12 12 10 7 9 12 15 25 24 10 13 14 4 5 10 10 12 13 11 9 15 17 19 20 21 22 19 18 18 20 21 21 21 21 20 21 21 21 21 19 18 16 14 13 13 12 11 11 9
12 17 8 7 13 16 18 16 9 13 11 5 3 7 8 4 7 8 14 13 16 15 19 21 22 23 22 20 18 19 20 21 21 21 21 20 21 20 18 18 16 15 14 13 13 12 11 10 9
6 8 6 11 20 21 24 21 7 3 4 7 8 8 7 5 7 9 15 17 16 14 17 24 23 23 23 22 21 21 20 20 21 21 21 21 20 19 18 17 15 15 14 13 13 12 12 10 10
10 9 12 17 20 21 20 22 6 7 9 7 9 13 13 8 14 16 15 16 14 14 14 22 20 24 24 23 21 21 21 21 21 20 22 21 20 18 17 16 15 15 15 14 13 13 12 10 9
10 11 15 16 20 23 22 22 1 8 8 11 10 14 10 15 14 13 13 15 14 15 15 19 20 22 24 25 22 21 21 22 22 22 21 19 19 18 16 15 16 16 15 15 14 14 12 10 8
16 12 18 22 20 21 20 15 8 11 9 14 12 14 4 13 14 12 11 15 13 14 14 15 18 19 20 22 23 23 23 22 22 22 21 21 18 17 17 16 16 16 16 15 14 14 12 10 7
13 13 23 21 19 22 20 20 4 7 8 13 3 6 6 15 16 11 12 12 13 12 13 15 15 17 16 18 23 24 24 23 23 23 22 21 19 18 18 17 16 16 17 16 15 13 12 9 6
19 15 17 24 24 22 22 20 3 3 10 7 9 14 2 17 15 13 12 12 10 12 14 15 14 14 16 17 19 23 25 24 23 22 22 21 16 17 18 17 17 17 16 15 14 14 12 10 8
18 16 25 24 23 22 23 22 18 8 15 16 15 13 12 19 16 15 14 13 13 14 15 14 14 14 13 15 18 17 20 19 19 18 21 19 19 17 18 20 18 18 17 16 14 13 12 12 11
22 23 23 25 24 25 26 25 20 20 18 18 15 14 16 17 16 16 17 16 17 16 13 15 15 14 14 11 13 13 14 15 16 18 19 17 18 16 18 15 15 15 17 13 12 12 11 12 8
25 27 26 28 25 26 26 26 26 23 21 18 18 13 13 19 17 17 17 19 17 17 17 17 18 16 14 11 9 11 8 13 11 16 21 13 10 13 13 12 14 13 15 14 14 10 7 12 14
26 26 25 23 23 23 25 25 25 25 21 20 18 15 15 17 19 18 17 17 20 17 17 17 17 18 15 15 10 9 10 9 14 17 21 14 9 8 13 12 14 14 16 16 9 12 9 9 11
24 25 25 24 25 26 28 27 23 26 19 21 22 20 19 20 20 19 20 20 21 21 20 18 18 18 17 16 16 12 8 14 15 17 19 16 12 9 8 8 8 10 15 13 14 8 7 6 10
25 28 26 28 25 27 24 30 27 23 22 22 23 21 23 22 22 21 22 21 23 23 23 20 20 19 18 18 16 13 11 13 10 13 20 15 14 13 8 5 5 8 15 15 14 12 12 6 8
29 26 22 24 25 28 24 32 26 26 26 27 25 23 23 24 25 23 19 23 23 25 26 23 18 21 19 17 14 11 12 11 10 13 17 17 13 18 9 6 5 13 13 11 7 6 7 5 6
14 25 31 33 27 26 26 31 25 26 23 21 24 25 22 23 25 24 22 20 24 25 27 26 23 23 21 17 15 13 13 10 10 13 15 17 14 18 11 8 6 14 7 5 6 5 7 8 6
20 28 25 26 23 24 27 30 21 20 21 20 15 14 13 17 20 20 19 19 22 22 27 26 20 21 21 15 13 11 8 11 10 10 10 20 16 18 11 7 7 13 7 7 7 7 5 6 8
26 29 31 25 24 21 23 25 22 20 20 20 20 21 18 18 13 14 14 17 11 19 27 27 24 21 14 14 14 14 12 12 12 11 15 20 18 18 11 8 10 7 8 8 7 5 10 6 7
29 30 31 28 25 23 28 29 26 20 19 20 20 19 19 19 17 14 11 11 13 13 23 24 25 23 19 13 14 13 13 13 12 11 13 19 18 18 10 10 11 10 8 8 6 9 6 4 9
28 29 26 29 24 23 25 27 33 26 24 24 24 20 20 19 21 24 22 17 18 16 24 23 23 23 21 18 11 11 10 9 11 13 12 16 17 18 14 11 12 10 7 9 10 11 12 10 8
28 28 28 28 24 16 19 20 33 19 27 24 25 25 24 27 27 23 21 19 19 22 25 25 25 23 20 19 15 19 15 15 12 12 11 14 16 16 14 11 12 9 8 10 9 9 8 11 12
29 24 25 25 24 22 22 15 34 17 27 21 23 21 14 16 13 25 20 17 15 22 22 22 24 22 22 20 18 15 16 12 11 10 13 13 13 14 14 11 12 11 8 10 11 11 10 10 9
25 24 22 18 17 17 29 21 16 22 28 20 18 16 18 18 13 5 4 4 13 21 21 21 23 22 21 21 18 19 18 16 12 13 11 11 11 10 12 11 10 12 10 11 10 9 8 7 5
20 13 9 7 10 16 25 18 17 28 29 22 22 16 20 21 9 7 5 4 2 18 20 21 23 22 23 23 21 21 19 17 15 15 12 14 11 10 12 13 12 10 10 12 10 9 6 7 7
19 22 8 15 17 18 19 14 18 22 29 21 23 14 2 3 5 6 6 4 5 10 19 23 23 21 23 23 22 19 20 13 10 14 11 11 11 11 13 12 12 12 12 12 12 8 7 6 8
36 27 28 27 26 16 19 28 23 27 30 24 20 18 12 10 9 7 7 5 6 5 15 17 20 19 21 21 19 20 13 16 12 13 11 11 12 11 12 13 13 12 13 13 12 10 11 7 6
33 25 17 17 9 12 10 20 14 16 20 21 25 14 17 15 13 8 6 5 5 8 7 10 11 15 13 16 16 15 9 12 7 10 12 13 13 14 14 14 13 12 14 14 13 11 11 10 7
8 6 10 1 2 3 4 7 15 21 21 23 33 17 12 13 9 8 7 6 8 6 8 10 10 11 11 13 12 11 7 7 7 8 10 10 9 12 14 13 11 10 10 10 13 13 13 12 10
7 4 3 3 6 2 2 5 8 13 17 20 23 21 7 4 5 5 7 8 11 9 8 7 8 9 9 10 9 8 7 7 7 6 7 10 11 12 12 10 9 9 9 7 5 11 13 15 13
Wind_Direction
177 210 229 249 242 230 250 247 242 257 23 68 42 348 338 328 333 53 121 136 122 129 135 140 134 133 133 126 129 134 136 135 133 130 127 121 121 113 104 103 103 107 109 116 115 109 99 89 79
210 213 235 261 239 251 251 246 239 225 95 76 60 267 275 273 69 123 136 162 135 137 144 142 140 136 134 128 131 135 136 134 129 127 123 118 111 109 106 106 107 115 124 121 114 106 99 90 81
273 275 250 230 235 246 263 295 34 52 54 93 244 263 299 292 67 120 105 152 134 144 152 142 145 142 139 135 132 131 131 129 126 123 120 116 114 112 114 112 119 128 125 118 111 104 96 86 75
222 240 243 262 255 256 244 277 137 90 162 199 252 268 227 131 114 102 134 146 147 157 151 145 148 147 146 142 139 132 129 126 128 128 125 120 122 121 122 124 131 127 120 112 107 99 89 80 70
237 263 243 254 258 256 267 282 141 189 234 250 197 246 259 104 107 122 144 145 158 150 135 153 147 147 146 145 141 136 138 135 132 127 119 123 125 128 134 135 131 128 123 116 108 100 92 82 71
222 236 255 260 260 252 246 251 79 270 264 251 250 264 272 123 133 138 148 142 159 140 145 151 148 145 146 145 142 134 132 128 119 119 123 124 128 138 141 136 128 125 122 118 112 105 98 88 70
247 254 256 261 272 283 295 306 261 236 243 257 254 246 186 151 131 137 143 127 139 148 151 151 159 154 144 132 130 128 123 124 126 127 131 131 138 144 137 131 131 130 127 123 119 112 108 99 84
238 254 264 269 274 278 283 284 294 323 288 268 290 262 294 128 118 131 132 132 146 150 153 156 159 155 145 139 133 132 131 132 134 136 137 138 143 143 136 133 135 134 131 126 120 119 114 110 108
246 249 256 260 268 274 274 275 143 197 257 270 266 257 203 125 136 144 143 151 149 160 162 162 161 160 152 144 144 137 137 137 139 138 136 142 149 148 143 142 140 138 133 131 132 133 136 135 129
238 248 253 262 273 279 285 293 299 223 225 229 226 245 146 144 157 160 173 180 167 172 172 166 157 156 148 145 149 144 146 147 149 150 153 169 155 156 142 136 142 143 141 143 148 148 158 150 147
241 247 256 260 264 278 292 294 288 279 259 257 244 255 180 169 170 174 183 193 186 173 171 164 158 157 152 151 152 154 156 157 160 163 172 186 165 144 131 138 143 146 150 154 160 165 194 220 198
258 256 263 267 264 265 266 279 276 274 272 271 277 274 249 176 183 189 190 186 191 186 173 166 164 162 159 157 162 163 167 168 168 175 185 190 151 150 146 156 164 164 171 155 183 184 132 70 74
276 270 275 287 291 285 274 262 270 263 269 280 271 259 253 187 196 193 196 192 186 191 185 174 168 166 164 165 167 171 182 171 174 174 191 186 157 165 156 168 167 179 184 178 155 118 129 113 106
269 273 277 276 276 278 283 273 259 260 257 257 263 258 246 246 204 197 192 193 184 185 192 176 178 172 170 172 172 176 189 172 176 172 189 169 161 169 170 177 165 181 150 171 126 151 136 130 115
268 269 269 262 261 259 266 265 255 265 263 257 253 245 241 245 239 226 192 197 189 181 182 184 180 182 181 182 175 178 186 176 178 172 179 177 182 174 168 158 161 154 160 151 144 145 121 117 124
280 285 278 262 267 259 238 255 250 247 247 245 244 242 240 238 231 236 217 196 191 174 178 176 177 183 184 185 182 184 185 176 173 168 173 187 179 169 165 165 163 159 147 150 143 139 142 133 129
250 256 253 266 256 254 251 252 240 241 240 246 243 226 226 224 227 224 230 209 191 178 172 179 177 182 182 185 179 188 183 178 173 167 171 179 188 176 169 170 163 146 147 142 155 150 148 147 143
232 246 253 257 258 256 249 251 242 238 240 251 262 274 252 226 220 224 214 221 193 184 170 173 177 181 181 182 180 183 180 181 174 174 171 175 186 177 181 167 145 151 161 161 173 155 150 145 146
251 258 269 269 280 278 255 257 258 248 241 230 234 241 224 258 242 219 223 206 208 184 166 172 174 181 180 184 181 181 184 183 179 180 170 174 182 180 188 165 153 164 175 169 165 144 143 137 132
233 248 258 271 268 276 281 282 274 251 256 255 244 251 248 213 231 229 229 204 195 178 165 170 175 175 185 198 193 187 181 182 181 178 171 173 177 180 189 165 166 178 167 161 159 146 138 135 151
246 248 257 261 265 263 277 282 273 265 261 256 256 243 239 254 226 221 217 210 190 183 165 173 177 175 180 195 195 187 185 180 185 184 174 176 175 178 189 165 168 183 161 166 164 163 163 159 178
251 252 260 262 270 265 264 270 271 262 262 258 253 240 235 232 234 238 212 209 192 190 168 169 174 177 181 186 190 193 191 187 192 186 177 174 175 179 184 165 170 176 158 168 171 166 163 165 178
265 279 279 281 278 280 262 259 264 269 259 251 245 247 248 233 259 217 223 201 204 185 166 169 168 175 177 186 189 194 195 194 188 184 172 172 177 179 185 170 162 168 159 165 171 174 169 180 176
265 282 279 276 269 258 247 242 254 266 256 265 261 280 264 252 234 180 156 177 223 178 160 165 168 174 176 182 192 197 197 192 186 183 175 175 175 178 186 165 171 169 163 168 169 174 164 165 168
259 264 247 222 224 240 249 252 239 257 257 261 266 284 259 248 125 129 153 184 202 165 163 164 170 177 180 183 190 195 199 197 186 185 178 174 177 180 186 175 173 173 164 165 157 164 168 160 159
237 238 235 245 243 251 236 234 238 236 258 241 250 255 127 91 125 169 171 201 224 168 175 160 173 179 180 185 188 196 195 196 193 182 177 180 179 184 180 180 176 172 167 168 162 158 162 178 167
242 243 237 252 256 264 252 261 264 250 245 257 260 251 171 182 181 190 169 199 206 211 171 170 169 176 175 182 187 195 195 191 188 179 171 173 170 177 178 181 177 177 166 163 162 162 162 163 154
237 245 233 234 230 233 212 239 249 292 350 348 332 230 189 176 175 169 157 170 101 79 114 150 146 166 155 171 183 190 181 184 164 163 163 167 168 169 166 178 182 176 169 165 160 155 155 160 160
329 295 263 228 332 324 300 258 25 2 346 338 335 254 174 185 159 148 164 138 104 85 100 108 123 128 129 152 174 177 153 146 139 167 158 153 144 159 164 172 174 173 164 175 160 161 156 148 147
46 74 57 65 326 275 244 274 60 345 345 344 346 345 345 118 126 168 149 144 128 138 120 115 117 135 134 132 128 124 121 119 126 129 136 137 138 143 148 149 157 163 164 170 178 160 155 153 154